Tracking 20232 objects as of 22-Jan-2020
HD Live streaming from Space Station
objects crossing your sky now

ARIANE 42P DEB

Track ARIANE 42P DEB now!
10-day predictions


NORAD ID: 44510
Int'l Code: 1992-052H
Perigee: 1,291.3 km
Apogee: 1,433.6 km
Inclination: 66.1 °
Period: 112.8 minutes
Semi major axis: 7733 km
RCS: Unknown
Launch date: August 10, 1992
Source: France (FR)
Launch site: FRENCH GUIANA (FRGUI)

Note: This is SATELLITE DEBRIS
aabbcc
Your satellite tracking list
Your tracking list is empty




NASA's NSSDC Master Catalog

Two Line Element Set (TLE):
1 44510U 92052H   20021.89908846  .00000088  00000-0  67256-3 0  9994
2 44510  66.0633  92.7120 0092004 284.7668  74.3164 12.76562313 20617
Source of the keplerian elements: AFSPC